Tracking 19176 objects as of 27-May-2018
HD Live streaming from Space Station
objects crossing your sky now

COSMOS 446

Track COSMOS 446 now!
10-day predictions
COSMOS 446 is classified as:


NORAD ID: 5549
Int'l Code: 1971-086C
Perigee: 1,387.4 km
Apogee: 1,519.1 km
Inclination: 74.0 °
Period: 114.8 minutes
Semi major axis: 7824 km
RCS: 0.7417 m2 (medium)
Launch date: October 13, 1971
Source: Commonwealth of Independent States (former USSR) (CIS)
Launch site: PLESETSK MISSILE AND SPACE COMPLEX (PKMTR)
aabbcc
Your satellite tracking list
Your tracking list is empty




NASA's NSSDC Master Catalog

Two Line Element Set (TLE):
1 05549U 71086C   18147.35921071 -.00000031  00000-0 -91309-4 0  9996
2 05549  74.0279 101.6077 0084150 238.5905 281.2203 12.54411453134945
Source of the keplerian elements: AFSPC